Location: Alpine Heights
(32.8181°N, 116.7809°W)
Time: 00:22:05
(UTC+00:00)

Meteor 1-21 - Pass Details

Date: 14 April 2021
Orbit: 845 x 887 km, 81.2° (Epoch: 14 May)

Event Time Altitude Azimuth Distance (km) Brightness Sun altitude
Rises 12:29:21 0° 184° (S) 3,428 7.1 -10.7°
Reaches altitude 10° 12:31:45 10° 183° (S) 2,501 6.4 -10.3°
Maximum altitude 12:37:27 82° 96° (E) 887 4.4 -9.1°
Drops below altitude 10° 12:43:14 10° 10° (N) 2,542 7.1 -8.0°
Sets 12:45:42 0° 10° (N) 3,489 7.8 -7.5°
